Location: *
(43.6428°N, 11.5461°E)
Time: 23:52:09
(UTC+00:00)

Cosmos 44 - Pass Details

Date: 21 October 2019
Orbit: 593 x 769 km, 65.1° (Epoch: 17 November)

Event Time Altitude Azimuth Distance (km) Brightness Sun altitude
Rises 17:21:54 0° 183° (S) 3,125 6.8 -11.6°
Reaches altitude 10° 17:24:33 10° 173° (S) 2,180 5.8 -12.1°
Maximum altitude 17:28:47 29° 114° (ESE) 1,263 4.1 -12.9°
Enters shadow 17:31:15 19° 69° (ENE) 1,615 4.6 -13.3°
